Flag for Germany Weather past 2 weeks in Dreieich, Hesse, Germany

Now
82 °F

Passing clouds.


Feels Like: 84 °F
Forecast: 74 / 97 °F
Wind: 2 mph from North

Location: Frankfurt / M-Flughafen

Current Time: Jul 3, 2015 at 11:01:22 AM

Latest Report: Jul 3, 2015 at 10:00 AM


Visibility: 14 mi

Pressure: 30.20 "Hg

Humidity: 57%

Dew point: 65 °F

Location of DreieichLocation

Historic Weather in Dreieich — Graph

°F

Dreieich temperature yesterday

Maximum temperature yesterday: 95 °F (at 4:00 PM)
Minimum temperature yesterday: 71 °F (at 6:00 AM)
Average temperature yesterday: 85 °F

Past Weeks' High & Low Weather Summary

 TemperatureHumidityPressure
High95 °F (Jul 2, 4:00 PM)100% (Jun 22, 2:00 AM)30.23 "Hg (Jun 22, 2:00 AM)
Low49 °F (Jun 23, 6:00 AM)21% (Jun 30, 7:00 PM)29.70 "Hg (Jun 22, 11:00 PM)
Average66 °F67%30.08 "Hg
* Reported Jun 18 10:00 AM — Jul 3 10:00 AM, Dreieich, Weather by CustomWeather, © 2015

Note: Actual official high and low records may vary slightly from our data, if they occured in-between our weather recording intervals... More about our weather records

Advertising

Dreieich weather history for previous 24 hours

 ConditionsComfort  
Time TempWeatherWind HumidityBarometerVisibility
10:00 AM
Fri, Jul 3
82 °FPassing clouds.2 mph57%30.20 "Hg14 mi
9:00 AM80 °FPassing clouds.1 mph63%30.19 "Hg16 mi
8:00 AM78 °FPassing clouds.2 mph66%30.19 "Hg14 mi
7:00 AM76 °FPassing clouds.1 mph71%30.17 "Hg16 mi
6:00 AM73 °FPassing clouds.1 mph75%30.16 "Hg22 mi
4:00 AM72 °FPassing clouds.1 mph76%30.14 "Hg25 mi
3:00 AM73 °FPassing clouds.2 mph74%30.13 "Hg25 mi
2:00 AM73 °FPassing clouds.1 mph72%30.13 "Hg25 mi
1:00 AM76 °FPassing clouds.2 mph64%30.12 "Hg25 mi
12:00 AM78 °FPassing clouds.2 mph61%30.11 "Hg25 mi
10:00 PM
Thu, Jul 2
90 °FPassing clouds.2 mph34%30.09 "Hg31 mi
9:00 PM92 °FPassing clouds.1 mph30%30.07 "Hg31 mi
8:00 PM94 °FPassing clouds.2 mph29%30.06 "Hg34 mi
7:00 PM95 °FPassing clouds.3 mph27%30.06 "Hg34 mi
6:00 PM95 °FPassing clouds.2 mph28%30.06 "Hg34 mi
5:00 PM95 °FSunny.3 mph28%30.07 "Hg34 mi
4:00 PM95 °FPassing clouds.3 mph30%30.07 "Hg34 mi
3:00 PM94 °FSunny.3 mph31%30.07 "Hg34 mi
2:00 PM93 °FSunny.3 mph35%30.09 "Hg31 mi
1:00 PM90 °FSunny.3 mph36%30.10 "Hg31 mi
12:00 PM88 °FSunny.3 mph39%30.11 "Hg31 mi
11:00 AM85 °FPassing clouds.2 mph41%30.11 "Hg31 mi
Weather by CustomWeather, © 2015

See weather overviewHow to use our weather pages